sat.trackr.live / text

‹ back to catalog

KUIPER-00128

NORAD 65957 · 2025-228L

PAYLOAD ACTIVE UNKNOWN

§ Identity

Operator
Country
US
Launch date
2025-10-14
Launch site
AFETR
Launch vehicle
Mass (kg)
RCS (m²)

External: N2YO · Heavens-Above · Gunter

§ Orbital elements

Epoch: 2026-09-20T06:09:57.130272Z

Period
97.30 min
Inclination
51.8992°
Eccentricity
0.0000821
Mean motion
14.79928524 rev/d
Perigee alt
629.0 km
Apogee alt
630.1 km
Semi-major
7,007.7 km
B*
3.0963e-4
RAAN
212.7550°
Arg perigee
77.5090°
Mean anomaly
282.5964°
Rev number
5,214

§ Raw data

KUIPER-001281 65957U 25228L   26263.25691123  .00002140  00000+0  30963-3 0  99992 65957  51.8992 212.7550 0000821  77.5090 282.5964 14.79928524 52148

JSON: /api/v1/satellites/65957 · /tle

For live sub-satellite position, see the globe view (requires WebGL).

§ Visibility from observer

Set your observer location to see the next 7 days of passes ≥ 10°. The values pass through the URL so the page stays shareable.

No JS? Fill the form by hand. The geolocation button needs JavaScript.